Regional Weather Roundup
Issued by NWS

Home | Current Version | Previous Version | Text Only | Print | Product List | Glossary Off
Versions: 1 2 3 4 5 6 7 8 9 10 11 12 13 14 15 16 17 18 19 20 21 22 23 24 25 26 27 28 29 30 31 32 33 34 35 36 37 38 39 40 41 42 43 44 45 46 47 48 49 50

000
ASUS43 KBIS 221810
RWRND

NORTH DAKOTA REGIONAL WEATHER ROUNDUP
NATIONAL WEATHER SERVICE BISMARCK ND
1200 PM CST SUN JAN 22 2017

NOTE: "FAIR" INDICATES FEW OR NO CLOUDS BELOW 12,000 FEET WITH NO
SIGNIFICANT WEATHER AND/OR OBSTRUCTIONS TO VISIBILITY.


NDZ001>003-009>011-017-221900-
NORTHWEST NORTH DAKOTA

CITY           SKY/WX    TMP DP  RH WIND       PRES   REMARKS
WILLISTON      CLOUDY    30  27  88 W15       29.81S WCI  19
6HR MIN TEMP:  29; 6HR MAX TEMP:  31;

MINOT          CLOUDY    33  30  88 W8        29.76R
MINOT AFB      CLOUDY    32  28  86 W12       29.75R
$$

NDZ018>021-031>035-040>046-221900-
SOUTHWEST NORTH DAKOTA

CITY           SKY/WX    TMP DP  RH WIND       PRES   REMARKS
BISMARCK       CLOUDY    33  29  85 NW10      29.81R
6HR MIN TEMP:  27; 6HR MAX TEMP:  33; 6HR PCP: TRACE;

DICKINSON      LGT SNOW  25  23  92 NW20      29.79S FOG     WCI  11
GARRISON         N/A     31  28  89 W12       29.77S
6HR MIN TEMP:  29; 6HR MAX TEMP:  31;

HETTINGER ARPT CLOUDY    28  24  85 NW17      29.83S WCI  16
$$

NDZ004>008-012>016-024-026-027-054-221900-
NORTHEAST NORTH DAKOTA

CITY           SKY/WX    TMP DP  RH WIND       PRES   REMARKS
GRAND FORKS    CLOUDY    35  29  78 W8        29.74S
GRND FRKS AFB  CLOUDY    34  29  82 NW8       29.74S
DEVILS LAKE    CLOUDY    30  27  88 NW13      29.73R WCI  20
$$

NDZ022-023-025-028>030-036>039-047>053-221900-
SOUTHEAST NORTH DAKOTA

CITY           SKY/WX    TMP DP  RH WIND       PRES   REMARKS
FARGO          CLOUDY    35  33  92 W6        29.75F FOG
6HR MIN TEMP:  35; 6HR MAX TEMP:  36;

JAMESTOWN      CLOUDY    31  29  92 NW15      29.74S FOG
$$




USA.gov is the U.S. government's official web portal to all federal, state and local government web resources and services.